sat.trackr.live / text

‹ back to catalog

KUIPER-00370

NORAD 68919 · 2026-098A

PAYLOAD ACTIVE UNKNOWN

§ Identity

Operator
Country
US
Launch date
2026-04-30
Launch site
FRGUI
Launch vehicle
Mass (kg)
RCS (m²)

External: N2YO · Heavens-Above · Gunter

§ Orbital elements

Epoch: 2026-09-19T13:51:03.777120Z

Period
97.30 min
Inclination
51.9001°
Eccentricity
0.0000300
Mean motion
14.79939825 rev/d
Perigee alt
629.3 km
Apogee alt
629.7 km
Semi-major
7,007.7 km
B*
3.1243e-4
RAAN
0.6312°
Arg perigee
103.4583°
Mean anomaly
256.6413°
Rev number
2,146

§ Raw data

KUIPER-003701 68919U 26098A   26262.57712705  .00002162  00000+0  31243-3 0  99962 68919  51.9001   0.6312 0000300 103.4583 256.6413 14.79939825 21467

JSON: /api/v1/satellites/68919 · /tle

For live sub-satellite position, see the globe view (requires WebGL).

§ Visibility from observer

Set your observer location to see the next 7 days of passes ≥ 10°. The values pass through the URL so the page stays shareable.

No JS? Fill the form by hand. The geolocation button needs JavaScript.